Skip Page Navigation
NASA JPL Caltech
NASA Logo - Jet Propulsion Laboratory + View the NASA Portal
+ Center for Near-Earth Object Studies
JPL Home Earth Solar System Stars & Galaxies Technology
JPL Solar System Dynamics
BODIES ORBITS EPHEMERIDES TOOLS PHYSICAL DATA DISCOVERY FAQ SITE MAP
JPL Small-Body Database Browser
Search: [ help ]  
452705 (2005 YX92)
Classification: Main-belt Asteroid          SPK-ID: 2452705
Ephemeris | Orbit Diagram | Orbital Elements | Mission Design | Physical Parameters | Discovery Circumstances ]

[ show orbit diagram ]
Orbital Elements at Epoch 2459000.5 (2020-May-31.0) TDB
Reference: JPL 8 (heliocentric ecliptic J2000)
 Element Value Uncertainty (1-sigma)   Units 
e .1699416212902456 8.8606e-08  
a 2.313872704572778 1.8282e-08 au
q 1.920649425698434 2.0648e-07 au
i 2.992085605650092 1.106e-05 deg
node 129.3073699464483 0.00019046 deg
peri 275.1442757554461 0.00019893 deg
M 82.54843837947932 4.6136e-05 deg
tp 2458705.709161475526
(2019-Aug-10.20916148)
0.00016431 TDB
period 1285.605202862229
3.52
1.5236e-05
4.171e-08
d
yr
n .2800237578367821 3.3187e-09 deg/d
Q 2.707095983447121 2.1389e-08 au
  Orbit Determination Parameters
   # obs. used (total)      47  
   data-arc span      7649 days (20.94 yr)  
   first obs. used      1998-12-28  
   last obs. used      2019-12-07  
   planetary ephem.      DE431  
   SB-pert. ephem.      SB431-N16  
   condition code      0  
   norm. resid. RMS      .64513  
   source      ORB  
   producer      Otto Matic  
   solution date      2019-Dec-14 23:10:40  

Additional Information
 Earth MOID = .93252 au 
 Jupiter MOID = 2.68165 au 
 T_jup = 3.561 
[ show covariance matrix ]

Ephemeris | Orbit Diagram | Orbital Elements | Mission Design | Physical Parameters | Discovery Circumstances ]

Physical Parameter Table
Parameter Symbol Value Units Sigma Reference Notes
absolute magnitude H 18.5   n/a MPO409069  

452705 (2005 YX92)          Discovered 2005-Dec-27 by Mt. Lemmon Survey at Mount Lemmon
Reference: Last Updated: 2016-01-04
Ephemeris | Orbit Diagram | Orbital Elements | Mission Design | Physical Parameters | Discovery Circumstances ]
ABOUT SSD CREDITS/AWARDS PRIVACY/COPYRIGHT GLOSSARY LINKS
FirstGov 2020-Jul-10 14:06 UT
(server date/time)  
NASA Home Page
Site Manager:   Ryan S. Park
Webmaster  Alan B. Chamberlin